sat.trackr.live / text

‹ back to catalog

STARLINK-2598

NORAD 48385 · 2021-038AJ

PAYLOAD ACTIVE UNKNOWN

§ Identity

Operator
Country
US
Launch date
2021-05-04
Launch site
AFETR
Launch vehicle
Mass (kg)
RCS (m²)

Purposes: comms

External: N2YO · Heavens-Above · Gunter

§ Orbital elements

Epoch: 2026-05-24T23:47:07.378368Z

Period
94.01 min
Inclination
53.1603°
Eccentricity
0.0001201
Mean motion
15.31697117 rev/d
Perigee alt
469.9 km
Apogee alt
471.6 km
Semi-major
6,848.9 km
B*
5.5702e-5
RAAN
350.5397°
Arg perigee
85.1675°
Mean anomaly
274.9464°
Rev number
28,017

§ Raw data

STARLINK-25981 48385U 21038AJ  26144.99105762  .00001364  00000+0  55702-4 0  99942 48385  53.1603 350.5397 0001201  85.1675 274.9464 15.31697117280171

JSON: /api/v1/satellites/48385 · /tle

For live sub-satellite position, see the globe view (requires WebGL).

§ Visibility from observer

Set your observer location to see the next 7 days of passes ≥ 10°. The values pass through the URL so the page stays shareable.

No JS? Fill the form by hand. The geolocation button needs JavaScript.